SL-16 DEB, 22338

Orbit data source: Space-Track

SL-16 DEB, 22338 is space debris in LEO originally from a launch on Fri, 25 Dec 1992 UTC launched from the Tyuratam Missile And Space Complex (TTMTR). Debris objects in space refer to the collection of defunct objects orbiting the Earth. Examples of debris include non-operational satellites, rocket bodies, and fragments generated from explosions, collisions, or faulty payload assembly.

Loading next visibility...
Identifier
22338, 1992-093AB
Orbit
LEO
Country
Flag of CISCIS
Related business
Manufacturer
Unknown
Mission
Spacecraft
Bus & Motor
Unknown
Mass
Unknown
Launch date (UTC)
1992-12-25 (33 years ago)
Launch vehicle
Unknown
Launch site
Tyuratam Missile And Space Complex (TTMTR)
Object type
Payload
Rocket body
Debris
Shape & HBR
Unknown
Radar Cross Section
Small (<0.1 m²)

Expand to show TLE details & history
Last TLE update: 1 day ago

TLE from 1 day ago
0 SL-16 DEB
1 22338U 92093AB  25241.89058416  .00007444  00000-0  10968-2 0  9991
2 22338  70.6164  41.2325 0068667 165.8542 315.7634 14.74073940712542
Epoch: 2025-08-29T21:22Z
TLE epoch observation values (Epoch: 2025-08-29T21:22:26.471Z)
Latitude
54.01968°
Longitude
-106.52493°
Altitude
622.008 km
Speed
7.572 km/s
True Right ascension
12h 49m 40s
True Declination
53° 51' 10"
Sunlit
Object was in daylight at epoch
Visualization orbit readout
Latitude
Unknown
Longitude
Unknown
Altitude
Unknown
Speed
Unknown
Apparent Right ascension
Unknown
Apparent Declination
Unknown
Sunlit
N/A
Visualization observer readout
Local Sidereal Time
16:00:16
Azimuth
Unknown
Elevation
Unknown
Doppler factor
Unknown
Orbital elements
Apogee altitude
694.231 km
Perigee altitude
597.766 km
Semi-major axis
7,024.136 km
Eccentricity
0.00687
Inclination
70.6164°
RAAN
41.2325°
Arg. of periapsis
165.8542°
True anomaly
315.21108°
Mean anomaly
315.7634°
Eccentric anomaly
315.48758°
Mean motion
3.68684 °/min
Orbital period
97.64 mins
BSTAR
0.0010968
Loading maneuver chart data...
Computing Atmospheric mass density...
Loading historical data...
Loading historical data...
Loading historical data...
Loading historical data...
Loading historical data...
Loading historical data...
Loading historical data...

Documentation

Showing up to 5 results
|